Flag for Japan Weather past 2 weeks in Sendai, Japan

Now
79 °F

Passing clouds.


Feels Like: 82 °F
Forecast: 73 / 93 °F
Wind: 2 mph from North

Location: Sendai Airport

Current Time: Aug 4, 2015 at 2:25:41 AM

Latest Report: Aug 3, 2015 at 9:00 PM


Visibility: 5 mi

Pressure: 29.86 "Hg

Humidity: 89%

Dew point: 75 °F

Location of SendaiLocation

Historic Weather in Sendai — Graph

°F

Sendai temperature yesterday

Maximum temperature yesterday: 86 °F (at 9:00 AM)
Minimum temperature yesterday: 79 °F (at 6:00 AM)
Average temperature yesterday: 82 °F

Past Weeks' High & Low Weather Summary

 TemperatureHumidityPressure
High90 °F (Jul 27, 12:00 PM)100% (Jul 25, 6:00 AM)29.95 "Hg (Jul 25, 6:00 AM)
Low73 °F (Jul 20, 6:00 AM)52% (Jul 25, 5:00 PM)29.68 "Hg (Jul 28, 1:00 PM)
Average80 °F80%29.81 "Hg
* Reported Jul 19 9:00 PM — Aug 3 9:00 PM, Sendai, Weather by CustomWeather, © 2015

Note: Actual official high and low records may vary slightly from our data, if they occured in-between our weather recording intervals... More about our weather records

Advertising

Sendai weather history for previous 24 hours

 ConditionsComfort  
Time TempWeatherWind HumidityBarometerVisibility
9:00 PM
Mon, Aug 3
79 °FPassing clouds.2 mph89%29.86 "Hg5 mi
8:00 PM79 °FPassing clouds.3 mph89%29.83 "Hg5 mi
7:00 PM79 °FPassing clouds.3 mph89%29.83 "Hg5 mi
6:00 PM79 °FScattered clouds.5 mph89%29.83 "Hg5 mi
5:00 PM81 °FPartly sunny.8 mph84%29.83 "Hg5 mi
4:00 PM82 °FPartly sunny.10 mph79%29.83 "Hg4 mi
3:00 PM82 °FPartly sunny.13 mph79%29.83 "Hg5 mi
2:00 PM82 °FPartly sunny.13 mph79%29.83 "Hg5 mi
1:00 PM84 °FPartly sunny.13 mph74%29.83 "Hg5 mi
12:00 PM84 °FPartly sunny.9 mph74%29.86 "Hg5 mi
11:00 AM84 °FPartly sunny.10 mph74%29.86 "Hg4 mi
10:00 AM86 °FClear.8 mph70%29.86 "Hg5 mi
9:00 AM86 °FSunny.2 mph66%29.86 "Hg10 mi
8:00 AM82 °FClear.2 mph79%29.86 "Hg5 mi
7:00 AM81 °FBroken clouds.5 mph84%29.86 "Hg5 mi
6:00 AM79 °FPassing clouds.6 mph89%29.86 "Hg4 mi
Weather by CustomWeather, © 2015

See weather overviewHow to use our weather pages